| time (UTC) | temp F | wind direction | speed knots | gust knots | rain 1hr in | rain 24hr in | rain mn in | humidity % | barometer mb |
| 20260508071558 | 60 | 43 | 9.6 | 22.6 | 0.09 | 0.10 | 0.09 | 89 | 1002.2 |
| 20260508064517 | 62 | 349 | 10.4 | 19.1 | 0.02 | 0.04 | 0.03 | 84 | 1003.3 |
| 20260508063037 | 64 | 53 | 11.3 | 24.3 | 0.00 | 0.02 | 0.01 | 79 | 1002.9 |
| 20260508061528 | 64 | 325 | 11.3 | 30.4 | 0.00 | 0.02 | 0.01 | 78 | 1002.6 |
| 20260508060038 | 63 | 353 | 11.3 | 30.4 | 0.00 | 0.02 | 0.01 | 79 | 1002.6 |
| 20260508054548 | 64 | 38 | 12.2 | 26.1 | 0.00 | 0.02 | 0.01 | 76 | 1002.9 |
| 20260508053025 | 65 | 12 | 13.9 | 25.2 | 0.00 | 0.02 | 0.01 | 75 | 1003.1 |
| 20260508051541 | 65 | 79 | 14.8 | 24.3 | 0.00 | 0.02 | 0.01 | 73 | 1003.6 |
| 20260508050019 | 64 | 98 | 6.1 | 18.2 | 0.00 | 0.02 | 0.01 | 74 | 1003.8 |
| 20260508044515 | 64 | 78 | 10.4 | 20.0 | 0.00 | 0.02 | 0.01 | 73 | 1004.3 |
| 20260508043005 | 64 | 52 | 7.8 | 24.3 | 0.00 | 0.02 | 0.01 | 74 | 1004.6 |
| 20260508041558 | 64 | 36 | 10.4 | 29.5 | 0.00 | 0.02 | 0.01 | 73 | 1004.2 |
| 20260508040043 | 64 | 357 | 13.0 | 27.8 | 0.00 | 0.02 | 0.01 | 76 | 1003.9 |
| 20260508034509 | 62 | 24 | 12.2 | 21.7 | 0.00 | 0.02 | 0.01 | 81 | 1004.3 |
| 20260508033040 | 62 | 73 | 13.0 | 22.6 | 0.00 | 0.02 | 0.01 | 83 | 1004.7 |
| 20260508031528 | 62 | 38 | 14.8 | 33.9 | 0.00 | 0.02 | 0.01 | 81 | 1005.4 |
| 20260508030028 | 64 | 52 | 14.8 | 31.3 | 0.00 | 0.02 | 0.01 | 76 | 1005.4 |
| 20260508024619 | 65 | 17 | 14.8 | 28.7 | 0.00 | 0.02 | 0.01 | 76 | 1005.8 |
| 20260508023019 | 64 | 26 | 13.9 | 28.7 | 0.00 | 0.02 | 0.01 | 76 | 1006.2 |
| 20260508021513 | 64 | 135 | 15.6 | 26.9 | 0.00 | 0.02 | 0.01 | 78 | 1006.8 |
| 20260508014625 | 64 | 45 | 19.1 | 31.3 | 0.00 | 0.02 | 0.01 | 78 | 1008.0 |
| 20260508013013 | 65 | 59 | 14.8 | 26.1 | 0.00 | 0.02 | 0.01 | 77 | 1008.4 |
| 20260508011559 | 65 | 12 | 13.0 | 29.5 | 0.00 | 0.02 | 0.01 | 79 | 1008.8 |
| 20260508010022 | 65 | 78 | 12.2 | 26.1 | 0.00 | 0.02 | 0.01 | 78 | 1009.3 |
| 20260508004556 | 66 | 135 | 13.0 | 24.3 | 0.00 | 0.02 | 0.01 | 76 | 1009.2 |
| 20260508003028 | 66 | 41 | 12.2 | 26.9 | 0.00 | 0.02 | 0.01 | 77 | 1009.8 |
| 20260508001535 | 65 | 81 | 10.4 | 25.2 | 0.00 | 0.02 | 0.01 | 78 | 1010.3 |
| 20260508000009 | 65 | 79 | 9.6 | 25.2 | 0.00 | 0.02 | 0.01 | 78 | 1010.7 |
| 20260507234512 | 65 | 71 | 8.7 | 23.5 | 0.00 | 0.02 | 0.01 | 78 | 1010.9 |
| 20260507233009 | 65 | 322 | 11.3 | 26.9 | 0.00 | 0.02 | 0.01 | 78 | 1011.1 |
| 20260507231514 | 65 | 64 | 10.4 | 24.3 | 0.00 | 0.02 | 0.01 | 78 | 1011.4 |
| 20260507230056 | 65 | 79 | 7.0 | 24.3 | 0.00 | 0.02 | 0.01 | 79 | 1011.5 |
| 20260507223018 | 65 | 109 | 7.0 | 21.7 | 0.00 | 0.02 | 0.01 | 79 | 1011.7 |
| 20260507221508 | 64 | 112 | 11.3 | 19.1 | 0.00 | 0.02 | 0.01 | 80 | 1011.8 |
| 20260507220059 | 64 | 85 | 9.6 | 22.6 | 0.00 | 0.02 | 0.01 | 80 | 1012.1 |
| 20260507214548 | 64 | 56 | 10.4 | 21.7 | 0.00 | 0.02 | 0.01 | 80 | 1012.1 |
| 20260507213101 | 64 | 6 | 8.7 | 25.2 | 0.00 | 0.02 | 0.01 | 80 | 1012.3 |
| 20260507211537 | 64 | 5 | 9.6 | 22.6 | 0.00 | 0.02 | 0.01 | 80 | 1012.5 |
| 20260507210008 | 64 | 112 | 7.0 | 22.6 | 0.00 | 0.02 | 0.01 | 80 | 1012.7 |
| 20260507203021 | 64 | 193 | 8.7 | 21.7 | 0.00 | 0.02 | 0.01 | 81 | 1012.7 |
| 20260507201518 | 64 | 105 | 6.1 | 24.3 | 0.00 | 0.02 | 0.01 | 81 | 1012.7 |
| 20260507200043 | 64 | 80 | 11.3 | 20.0 | 0.00 | 0.02 | 0.01 | 81 | 1012.7 |
| 20260507194515 | 63 | 66 | 10.4 | 22.6 | 0.00 | 0.02 | 0.01 | 81 | 1012.7 |
| 20260507193002 | 63 | 341 | 7.0 | 15.6 | 0.00 | 0.02 | 0.01 | 83 | 1012.8 |
| 20260507191542 | 63 | 60 | 5.2 | 19.1 | 0.00 | 0.02 | 0.01 | 82 | 1012.9 |
| 20260507190038 | 63 | 19 | 7.0 | 20.0 | 0.00 | 0.02 | 0.01 | 81 | 1012.9 |
| 20260507184535 | 63 | 190 | 7.0 | 20.0 | 0.00 | 0.02 | 0.01 | 81 | 1013.0 |
| 20260507183048 | 63 | 54 | 8.7 | 16.5 | 0.00 | 0.02 | 0.01 | 81 | 1013.2 |
| 20260507181525 | 63 | 55 | 10.4 | 21.7 | 0.00 | 0.02 | 0.01 | 81 | 1013.1 |
| 20260507180048 | 63 | 76 | 9.6 | 20.0 | 0.00 | 0.02 | 0.01 | 81 | 1013.2 |
| 20260507174516 | 63 | 26 | 8.7 | 19.1 | 0.00 | 0.02 | 0.01 | 82 | 1013.2 |
| 20260507173058 | 63 | 57 | 6.1 | 18.2 | 0.00 | 0.02 | 0.01 | 82 | 1013.3 |
| 20260507171523 | 63 | 36 | 9.6 | 18.2 | 0.00 | 0.02 | 0.01 | 82 | 1013.5 |
| 20260507170030 | 62 | 43 | 8.7 | 20.0 | 0.00 | 0.02 | 0.01 | 84 | 1013.5 |
| 20260507164527 | 62 | 57 | 9.6 | 17.4 | 0.00 | 0.02 | 0.01 | 85 | 1013.5 |
| 20260507163058 | 62 | 26 | 7.0 | 20.0 | 0.00 | 0.02 | 0.01 | 85 | 1013.6 |
| 20260507161510 | 62 | 221 | 6.1 | 18.2 | 0.00 | 0.02 | 0.01 | 86 | 1013.5 |
| 20260507160127 | 61 | 42 | 11.3 | 20.9 | 0.00 | 0.02 | 0.01 | 87 | 1013.5 |
| 20260507154513 | 62 | 50 | 7.0 | 16.5 | 0.00 | 0.02 | 0.01 | 87 | 1013.8 |
| 20260507153101 | 62 | 38 | 9.6 | 20.0 | 0.00 | 0.02 | 0.01 | 87 | 1014.1 |
| 20260507151549 | 62 | 41 | 8.7 | 20.0 | 0.00 | 0.02 | 0.01 | 86 | 1014.4 |
| 20260507150006 | 63 | 90 | 11.3 | 26.1 | 0.00 | 0.02 | 0.01 | 85 | 1014.6 |
| 20260507144543 | 62 | 141 | 7.8 | 18.2 | 0.01 | 0.02 | 0.01 | 87 | 1014.9 |
| 20260507143008 | 62 | 219 | 9.6 | 20.9 | 0.01 | 0.02 | 0.01 | 89 | 1015.0 |
| 20260507141536 | 62 | 128 | 11.3 | 22.6 | 0.01 | 0.02 | 0.01 | 89 | 1015.1 |
| 20260507140041 | 61 | 75 | 9.6 | 14.8 | 0.01 | 0.02 | 0.01 | 89 | 1015.3 |
| 20260507134555 | 62 | 57 | 9.6 | 20.9 | 0.00 | 0.01 | 0.00 | 88 | 1015.6 |
| 20260507133014 | 62 | 17 | 17.4 | 27.8 | 0.00 | 0.01 | 0.00 | 88 | 1015.6 |
| 20260507131538 | 62 | 31 | 7.0 | 14.8 | 0.00 | 0.01 | 0.00 | 87 | 1015.9 |
| 20260507130036 | 62 | 106 | 6.1 | 17.4 | 0.00 | 0.01 | 0.00 | 88 | 1016.0 |
| 20260507124517 | 61 | 37 | 7.8 | 16.5 | 0.00 | 0.01 | 0.00 | 90 | 1016.1 |
| 20260507123058 | 62 | 38 | 8.7 | 20.9 | 0.00 | 0.01 | 0.00 | 88 | 1016.1 |
| 20260507121525 | 62 | 86 | 10.4 | 21.7 | 0.00 | 0.01 | 0.00 | 86 | 1016.1 |
| 20260507120033 | 64 | 48 | 8.7 | 16.5 | 0.00 | 0.01 | 0.00 | 80 | 1016.0 |
| 20260507114600 | 63 | 46 | 7.8 | 18.2 | 0.00 | 0.01 | 0.00 | 82 | 1015.7 |
| 20260507113033 | 63 | 39 | 7.8 | 16.5 | 0.00 | 0.01 | 0.00 | 83 | 1016.1 |
| 20260507111555 | 62 | 69 | 8.7 | 17.4 | 0.00 | 0.01 | 0.00 | 85 | 1016.2 |
| 20260507110054 | 62 | 29 | 8.7 | 21.7 | 0.00 | 0.01 | 0.00 | 86 | 1016.3 |
| 20260507104522 | 63 | 28 | 17.4 | 31.3 | 0.00 | 0.01 | 0.01 | 84 | 1016.6 |
| 20260507103004 | 64 | 10 | 17.4 | 29.5 | 0.00 | 0.01 | 0.01 | 79 | 1016.4 |
| 20260507101507 | 65 | 16 | 13.9 | 24.3 | 0.00 | 0.01 | 0.01 | 76 | 1016.6 |
| 20260507100016 | 64 | 22 | 9.6 | 15.6 | 0.00 | 0.01 | 0.01 | 77 | 1016.5 |
| 20260507094531 | 64 | 77 | 8.7 | 15.6 | 0.00 | 0.01 | 0.01 | 79 | 1016.8 |
| 20260507093008 | 63 | 41 | 7.8 | 14.8 | 0.00 | 0.01 | 0.01 | 80 | 1017.0 |
| 20260507091545 | 63 | 95 | 6.1 | 15.6 | 0.00 | 0.01 | 0.01 | 80 | 1017.3 |
| 20260507090033 | 63 | 21 | 8.7 | 20.0 | 0.00 | 0.01 | 0.01 | 81 | 1017.4 |
| 20260507083007 | 64 | 33 | 11.3 | 20.9 | 0.01 | 0.01 | 0.01 | 79 | 1017.5 |
| 20260507081528 | 64 | 36 | 11.3 | 20.0 | 0.01 | 0.01 | 0.01 | 79 | 1017.5 |
| 20260507080057 | 63 | 38 | 14.8 | 23.5 | 0.01 | 0.01 | 0.01 | 80 | 1017.7 |
| 20260507074512 | 63 | 358 | 9.6 | 30.4 | 0.00 | 0.00 | 0.00 | 80 | 1017.9 |